Location: Brede
(50.9167°N, 0.6000°E)
Time: 15:47:12
(UTC+00:00)

Vanguard 3 - All Passes

Search period start: 24 November 2020 00:00
Search period end: 04 December 2020 00:00
Orbit: 508 x 3262 km, 33.3° (Epoch: 24 November)

Date Brightness Start Highest point End Pass type
(mag) Time Alt. Az. Time Alt. Az. Time Alt. Az.
24 Nov - 00:01:19 10° SSW 00:05:05 17° SSE 00:10:06 10° SE night (unlit)
24 Nov - 02:11:15 10° SW 02:16:13 18° S 02:23:00 10° SSE visible
24 Nov - 22:49:45 10° S 22:51:41 12° SSE 22:53:54 10° SE night (unlit)
25 Nov - 00:58:11 10° SW 01:02:17 17° S 01:07:48 10° SE visible
25 Nov - 03:10:15 10° SW 03:13:48 13° SSW 03:18:01 10° S visible
25 Nov - 23:45:41 10° SSW 23:48:39 15° S 23:52:22 10° SE night (unlit)
26 Nov - 01:56:04 10° SW 01:59:41 14° S 02:04:11 10° SSE visible
26 Nov - 22:34:29 10° S 22:35:16 10° SSE 22:36:07 10° SSE night (unlit)
27 Nov - 00:42:51 10° SSW 00:45:50 14° S 00:49:32 10° SSE night (unlit)
27 Nov - 23:30:20 10° SSW 23:32:16 12° S 23:34:29 10° SSE night (unlit)
28 Nov - 01:42:41 10° SSW 01:43:12 10° SSW 01:43:43 10° S night (unlit)
29 Nov - 00:28:33 10° SSW 00:29:27 10° S 00:30:23 10° S night (unlit)
